Weather History for Kelso-Longview, WA

Change the Weather History Date:

Sunday, September 15, 2013

  Actual Average Record
Temperature  
Mean Temperature 62 °F -  
Max Temperature 64 °F 69 °F 89 °F (2008)
Min Temperature 60 °F 49 °F 41 °F (2003)
Degree Days  
Heating Degree Days 3    
Growing Degree Days 12 (Base 50)    
Moisture  
Dew Point 58 °F    
Average Humidity 83    
Maximum Humidity 94    
Minimum Humidity 73    
Precipitation  
Precipitation 0.10 in - - ()
Sea Level Pressure  
Sea Level Pressure 29.82 in    
Wind  
Wind Speed 2 mph (SSW)    
Max Wind Speed 7 mph    
Max Gust Speed -    
Visibility 9 miles    
Events Thunderstorm    
Averages and records for this station are not official NWS values.
T = Trace of Precipitation, MM = Missing Value Source: NWS Daily Summary

Daily Weather History Graph

Daily Weather History Graph

Search for Another Location

Airport:

Trip Planner

Search our weather history database for the weather conditions in past years. The results will help you decide how hot, cold, wet, or windy it might be!

Date:

Astronomy

Sep. 15, 2013 Rise Set
Actual Time 6:50 AM PDT 7:22 PM PDT
Civil Twilight 6:20 AM PDT 7:52 PM PDT
Nautical Twilight 5:44 AM PDT 8:27 PM PDT
Astronomical Twilight 5:07 AM PDT 9:04 PM PDT
Moon 5:02 PM PDT (9/15) 2:23 AM PDT (9/15)
Length of Visible Light 13h 32m
Length of Day
12h 32m
Waxing Gibbous, 83% of the Moon is Illuminated
Sep 15
Waxing Gibbous
Sep 19
Full
Sep 26
Last Quarter
Oct 4
New
Oct 11
First Quarter

Hourly Weather History & Observations

Time (PDT) Temp. Dew Point Humidity Pressure Visibility Wind Dir Wind Speed Gust Speed Precip Events Conditions
12:15 AM 62.6 °F 57.2 °F 82% 29.77 in 10.0 mi NNE 3.5 mph - N/A   Scattered Clouds
12:35 AM 62.6 °F 59.0 °F 88% 29.77 in 10.0 mi Calm Calm - N/A   Overcast
12:55 AM 62.6 °F 59.0 °F 88% 29.77 in 10.0 mi Calm Calm - N/A   Overcast
1:15 AM 62.6 °F 57.2 °F 82% 29.77 in 10.0 mi Calm Calm - N/A   Overcast
1:35 AM 62.6 °F 59.0 °F 88% 29.76 in 10.0 mi Calm Calm - N/A   Overcast
1:55 AM 62.6 °F 59.0 °F 88% 29.77 in 10.0 mi NW 3.5 mph - N/A   Overcast
2:15 AM 62.6 °F 59.0 °F 88% 29.77 in 10.0 mi WNW 3.5 mph - N/A   Overcast
2:35 AM 62.6 °F 59.0 °F 88% 29.77 in 10.0 mi WNW 3.5 mph - N/A   Overcast
2:55 AM 62.6 °F 59.0 °F 88% 29.77 in 10.0 mi West 4.6 mph - N/A   Overcast
3:15 AM 62.6 °F 57.2 °F 82% 29.78 in 10.0 mi West 4.6 mph - N/A   Overcast
3:35 AM 62.6 °F 57.2 °F 82% 29.77 in 10.0 mi Calm Calm - N/A   Overcast
3:55 AM 62.6 °F 57.2 °F 82% 29.78 in 10.0 mi West 4.6 mph - N/A   Overcast
4:15 AM 62.6 °F 57.2 °F 82% 29.77 in 10.0 mi WNW 3.5 mph - N/A   Overcast
4:35 AM 62.6 °F 57.2 °F 82% 29.77 in 10.0 mi WNW 3.5 mph - N/A   Overcast
4:55 AM 62.6 °F 55.4 °F 77% 29.77 in 10.0 mi Calm Calm - N/A   Overcast
5:15 AM 62.6 °F 57.2 °F 82% 29.77 in 10.0 mi Calm Calm - N/A   Overcast
5:35 AM 62.6 °F 57.2 °F 82% 29.77 in 10.0 mi Calm Calm - N/A   Overcast
5:55 AM 62.6 °F 57.2 °F 82% 29.77 in 10.0 mi Calm Calm - N/A   Overcast
6:15 AM 62.6 °F 55.4 °F 77% 29.77 in 10.0 mi Calm Calm - N/A Thunderstorm Overcast
6:35 AM 62.6 °F 55.4 °F 77% 29.78 in 10.0 mi Calm Calm - N/A Thunderstorm Overcast
6:55 AM 62.6 °F 55.4 °F 77% 29.78 in 10.0 mi Calm Calm - N/A   Overcast
7:15 AM 62.6 °F 57.2 °F 82% 29.78 in 10.0 mi Calm Calm - N/A   Overcast
7:35 AM 62.6 °F 57.2 °F 82% 29.79 in 10.0 mi Calm Calm - N/A   Overcast
7:55 AM 62.6 °F 57.2 °F 82% 29.79 in 10.0 mi Calm Calm - N/A   Overcast
8:15 AM 62.6 °F 55.4 °F 77% 29.78 in 10.0 mi Calm Calm - N/A   Overcast
8:35 AM 62.6 °F 55.4 °F 77% 29.78 in 10.0 mi Calm Calm - N/A   Overcast
8:55 AM 62.6 °F 55.4 °F 77% 29.79 in 10.0 mi Calm Calm - N/A   Overcast
9:15 AM 62.6 °F 55.4 °F 77% 29.79 in 10.0 mi Calm Calm - N/A   Overcast
9:35 AM 62.6 °F 55.4 °F 77% 29.80 in 10.0 mi SSE 3.5 mph - N/A   Overcast
9:55 AM 64.4 °F 55.4 °F 73% 29.80 in 10.0 mi Calm Calm - N/A   Overcast
10:15 AM 64.4 °F 55.4 °F 73% 29.81 in 10.0 mi Calm Calm - N/A   Overcast
10:35 AM 64.4 °F 55.4 °F 73% 29.81 in 10.0 mi Calm Calm - N/A   Overcast
10:55 AM 64.4 °F 57.2 °F 77% 29.81 in 10.0 mi Calm Calm - N/A   Overcast
11:15 AM 64.4 °F 57.2 °F 77% 29.81 in 10.0 mi Calm Calm - N/A Thunderstorm Overcast
11:35 AM 64.4 °F 57.2 °F 77% 29.81 in 10.0 mi Calm Calm - N/A   Overcast
11:55 AM 64.4 °F 57.2 °F 77% 29.82 in 10.0 mi SSE 3.5 mph - N/A   Overcast
12:15 PM 64.4 °F 57.2 °F 77% 29.82 in 10.0 mi SSE 3.5 mph - N/A   Overcast
12:35 PM 64.4 °F 57.2 °F 77% 29.82 in 10.0 mi SSE 4.6 mph - N/A   Overcast
12:55 PM 64.4 °F 57.2 °F 77% 29.82 in 9.0 mi SE 4.6 mph - N/A   Overcast
1:15 PM 64.4 °F 59.0 °F 83% 29.83 in 10.0 mi SSE 5.8 mph - N/A Thunderstorm Overcast
1:35 PM 64.4 °F 59.0 °F 83% 29.83 in 10.0 mi SSE 4.6 mph - N/A   Overcast
1:55 PM 64.4 °F 59.0 °F 83% 29.83 in 9.0 mi SE 3.5 mph - N/A   Overcast
2:15 PM 64.4 °F 59.0 °F 83% 29.83 in 8.0 mi SSE 5.8 mph - N/A   Overcast
2:35 PM 64.4 °F 60.8 °F 88% 29.83 in 3.0 mi South 3.5 mph - N/A   Overcast
2:55 PM 62.6 °F 60.8 °F 94% 29.83 in 1.5 mi South 5.8 mph - 0.02 in   Overcast
3:15 PM 64.4 °F 60.8 °F 88% 29.84 in 3.0 mi South 3.5 mph - N/A   Overcast
3:35 PM 64.4 °F 60.8 °F 88% 29.84 in 2.0 mi South 6.9 mph - N/A   Overcast
3:55 PM 62.6 °F 60.8 °F 94% 29.84 in 1.2 mi South 6.9 mph - 0.01 in   Overcast
4:15 PM 62.6 °F 59.0 °F 88% 29.84 in 5.0 mi SE 6.9 mph - N/A   Overcast
4:35 PM 64.4 °F 60.8 °F 88% 29.84 in 10.0 mi SE 5.8 mph - N/A   Overcast
4:55 PM 64.4 °F 60.8 °F 88% 29.84 in 10.0 mi SSE 5.8 mph - N/A   Overcast
5:15 PM 64.4 °F 60.8 °F 88% 29.84 in 8.0 mi WNW 5.8 mph - N/A   Overcast
5:35 PM 62.6 °F 59.0 °F 88% 29.84 in 10.0 mi North 3.5 mph - 0.01 in   Overcast
5:55 PM 62.6 °F 59.0 °F 88% 29.85 in 10.0 mi North 4.6 mph - 0.01 in   Overcast
6:15 PM 64.4 °F 59.0 °F 83% 29.85 in 10.0 mi North 3.5 mph - N/A   Overcast
6:35 PM 64.4 °F 59.0 °F 83% 29.86 in 10.0 mi Calm Calm - N/A   Overcast
6:55 PM 64.4 °F 59.0 °F 83% 29.86 in 10.0 mi Calm Calm - N/A   Overcast
7:15 PM 62.6 °F 57.2 °F 82% 29.86 in 3.0 mi NW 3.5 mph - N/A   Overcast
7:35 PM 62.6 °F 59.0 °F 88% 29.87 in 10.0 mi Calm Calm - N/A   Overcast
7:55 PM 62.6 °F 57.2 °F 82% 29.87 in 10.0 mi North 3.5 mph - N/A   Overcast
8:15 PM 62.6 °F 57.2 °F 82% 29.87 in 10.0 mi Calm Calm - N/A   Overcast
8:35 PM 62.6 °F 57.2 °F 82% 29.89 in 7.0 mi NNE 4.6 mph - 0.01 in   Overcast
8:55 PM 60.8 °F 57.2 °F 88% 29.89 in 5.0 mi Calm Calm - 0.03 in   Overcast
9:15 PM 60.8 °F 57.2 °F 88% 29.90 in 5.0 mi Calm Calm - 0.01 in   Overcast
9:35 PM 60.8 °F 57.2 °F 88% 29.90 in 10.0 mi Calm Calm - 0.02 in   Overcast
9:55 PM 60.8 °F 57.2 °F 88% 29.89 in 10.0 mi Calm Calm - 0.02 in   Overcast
10:15 PM 60.8 °F 57.2 °F 88% 29.89 in 10.0 mi Calm Calm - N/A   Mostly Cloudy
10:35 PM 60.8 °F 57.2 °F 88% 29.89 in 10.0 mi Calm Calm - N/A   Overcast
10:55 PM 60.8 °F 57.2 °F 88% 29.90 in 10.0 mi Calm Calm - N/A   Overcast
11:15 PM 60.8 °F 57.2 °F 88% 29.90 in 3.0 mi Calm Calm - 0.01 in   Overcast
11:35 PM 60.8 °F 57.2 °F 88% 29.90 in 10.0 mi Calm Calm - 0.01 in   Overcast
11:55 PM 60.8 °F 57.2 °F 88% 29.90 in 10.0 mi South 3.5 mph - 0.01 in   Overcast